TimeCST,TemperatureF,Dew PointF,Humidity,Sea Level PressureIn,VisibilityMPH,Wind Direction,Wind SpeedMPH,Gust SpeedMPH,PrecipitationIn,Events,Conditions,WindDirDegrees,DateUTC
12:53 AM,68.0,64.9,90,29.99,10.0,ESE,10.4,-,N/A,,Mostly Cloudy,120,2013-02-20 06:53:00
1:53 AM,69.1,64.9,87,29.96,10.0,SE,12.7,-,N/A,,Overcast,130,2013-02-20 07:53:00
2:41 AM,69.8,66.2,88,29.94,10.0,ESE,13.8,-,N/A,,Overcast,120,2013-02-20 08:41:00
2:53 AM,69.1,66.0,90,29.95,10.0,ESE,10.4,-,N/A,,Overcast,120,2013-02-20 08:53:00
3:53 AM,70.0,66.0,87,29.94,10.0,SE,16.1,-,N/A,,Overcast,130,2013-02-20 09:53:00
4:53 AM,70.0,66.9,90,29.93,10.0,ESE,12.7,19.6,N/A,,Clear,110,2013-02-20 10:53:00
5:53 AM,69.1,66.9,93,29.94,10.0,ESE,11.5,-,N/A,,Scattered Clouds,120,2013-02-20 11:53:00
6:53 AM,69.1,66.0,90,29.95,10.0,ESE,8.1,-,N/A,,Partly Cloudy,120,2013-02-20 12:53:00
7:53 AM,70.0,68.0,93,29.97,9.0,SE,10.4,-,N/A,,Mostly Cloudy,140,2013-02-20 13:53:00
8:53 AM,73.0,68.0,84,29.96,10.0,SSE,18.4,26.5,N/A,,Mostly Cloudy,150,2013-02-20 14:53:00
9:53 AM,75.9,66.9,74,29.94,10.0,SSE,29.9,40.3,N/A,,Scattered Clouds,160,2013-02-20 15:53:00
10:53 AM,77.0,66.0,69,29.93,10.0,SSE,26.5,39.1,N/A,,Mostly Cloudy,160,2013-02-20 16:53:00
11:00 AM,78.8,66.2,65,29.93,10.0,SSE,28.8,39.1,N/A,,Scattered Clouds,160,2013-02-20 17:00:00
11:53 AM,79.0,66.0,64,29.87,10.0,SSE,33.4,41.4,N/A,,Partly Cloudy,150,2013-02-20 17:53:00
12:48 PM,80.6,66.2,61,29.85,10.0,SSE,32.2,42.6,N/A,,Mostly Cloudy,160,2013-02-20 18:48:00
12:53 PM,79.0,66.0,64,29.84,10.0,SSE,32.2,42.6,N/A,,Mostly Cloudy,150,2013-02-20 18:53:00
1:25 PM,82.4,66.2,58,29.82,10.0,SSE,31.1,42.6,N/A,,Mostly Cloudy,160,2013-02-20 19:25:00
1:53 PM,80.1,66.0,62,29.81,10.0,SSE,28.8,39.1,N/A,,Scattered Clouds,160,2013-02-20 19:53:00
2:14 PM,80.6,66.2,61,29.81,10.0,SSE,24.2,35.7,N/A,,Scattered Clouds,160,2013-02-20 20:14:00
2:35 PM,78.8,66.2,65,29.78,10.0,SSE,31.1,36.8,N/A,,Mostly Cloudy,150,2013-02-20 20:35:00
2:53 PM,78.1,66.0,66,29.78,10.0,SSE,27.6,36.8,N/A,,Mostly Cloudy,160,2013-02-20 20:53:00
3:00 PM,78.8,66.2,65,29.78,10.0,SSE,27.6,36.8,N/A,,Mostly Cloudy,160,2013-02-20 21:00:00
3:53 PM,77.0,66.9,71,29.75,10.0,SSE,27.6,35.7,N/A,,Mostly Cloudy,160,2013-02-20 21:53:00
3:59 PM,78.8,66.2,65,29.75,10.0,SSE,29.9,38.0,N/A,,Mostly Cloudy,160,2013-02-20 21:59:00
4:40 PM,77.0,68.0,74,29.75,10.0,SSE,25.3,34.5,N/A,,Mostly Cloudy,160,2013-02-20 22:40:00
4:53 PM,75.9,68.0,76,29.75,10.0,SSE,26.5,36.8,N/A,,Mostly Cloudy,160,2013-02-20 22:53:00
5:53 PM,75.0,68.0,79,29.74,10.0,SSE,25.3,34.5,N/A,,Overcast,150,2013-02-20 23:53:00
6:53 PM,73.0,68.0,84,29.73,10.0,SSE,24.2,27.6,N/A,,Overcast,150,2013-02-21 00:53:00
7:07 PM,73.4,68.0,83,29.73,10.0,SSE,23.0,33.4,N/A,,Overcast,150,2013-02-21 01:07:00
7:53 PM,73.0,68.0,84,29.73,10.0,SSE,21.9,32.2,N/A,,Scattered Clouds,150,2013-02-21 01:53:00
8:44 PM,73.4,68.0,83,29.73,10.0,SSE,20.7,27.6,N/A,,Mostly Cloudy,150,2013-02-21 02:44:00
8:53 PM,73.0,68.0,84,29.72,10.0,SE,21.9,-,N/A,,Mostly Cloudy,140,2013-02-21 02:53:00
9:53 PM,73.0,69.1,87,29.72,10.0,SSE,24.2,31.1,N/A,,Mostly Cloudy,150,2013-02-21 03:53:00
10:23 PM,73.4,69.8,88,29.72,10.0,SSE,18.4,26.5,N/A,,Mostly Cloudy,150,2013-02-21 04:23:00
10:45 PM,73.4,69.8,88,29.72,10.0,SSE,25.3,29.9,N/A,,Overcast,160,2013-02-21 04:45:00
10:53 PM,73.0,69.1,87,29.71,10.0,SSE,24.2,33.4,N/A,,Overcast,160,2013-02-21 04:53:00
11:24 PM,73.4,69.8,88,29.70,10.0,SSE,25.3,31.1,N/A,,Overcast,160,2013-02-21 05:24:00
11:43 PM,73.4,69.8,88,29.70,10.0,SSE,25.3,32.2,N/A,,Overcast,160,2013-02-21 05:43:00
11:53 PM,73.0,69.1,87,29.70,10.0,SSE,23.0,34.5,N/A,,Overcast,160,2013-02-21 05:53:00